Valparaiso, FL

9:26 PM CDT on August 18, 2017 (GMT -0500)
Eglin Air Force Base

Weather History for KVPS - November, 2012

Change the Weather History Date:

Monday, November 5, 2012

  Actual Average Record
Temperature  
Mean Temperature 61 °F -  
Max Temperature 71 °F 72 °F 85 °F (1978)
Min Temperature 51 °F 47 °F 27 °F (1955)
Degree Days  
Heating Degree Days 4    
Growing Degree Days 11 (Base 50)    
Moisture  
Dew Point 46 °F    
Average Humidity 58    
Maximum Humidity 91    
Minimum Humidity 31    
Precipitation  
Precipitation 0.00 in - - ()
Sea Level Pressure  
Sea Level Pressure 30.01 in    
Wind  
Wind Speed 5 mph (NNE)    
Max Wind Speed 12 mph    
Max Gust Speed 21 mph    
Visibility 10 miles    
Events Rain    
Averages and records for this station are not official NWS values.
T = Trace of Precipitation, MM = Missing Value Source: NWS Daily Summary

Daily Weather History Graph

Daily Weather History Graph

Search for Another Location

Airport or City:

Trip Planner

Search our weather history database for the weather conditions in past years. The results will help you decide how hot, cold, wet, or windy it might be!

Date:

Astronomy

Nov. 05, 2012 Rise Set
Actual Time 6:04 AM CST 4:54 PM CST
Civil Twilight 5:39 AM CST 5:19 PM CST
Nautical Twilight 5:10 AM CST 5:48 PM CST
Astronomical Twilight 4:42 AM CST 6:16 PM CST
Moon 10:31 PM CST (11/5) 11:22 AM CST (11/5)
Length of Visible Light 11h 40m
Length of Day
10h 50m
Waning Gibbous, 62% of the Moon is Illuminated
Nov 5
Waning Gibbous
Nov 6
Last Quarter
Nov 13
New
Nov 20
First Quarter
Nov 28
Full

Hourly Weather History & Observations

Time (CST) Temp. Dew Point Humidity Pressure Visibility Wind Dir Wind Speed Gust Speed Precip Events Conditions
12:56 AM 57.9 °F 54.3 °F 88% 30.06 in 10.0 mi NNW 2.3 mph - N/A   Clear
1:55 AM 56.5 °F 53.1 °F 88% 30.06 in 10.0 mi NNW 3.5 mph - N/A   Clear
2:55 AM 55.0 °F 51.8 °F 89% 30.06 in 10.0 mi North 2.3 mph - N/A   Clear
3:56 AM 53.1 °F 50.4 °F 91% 30.07 in 10.0 mi North 5.8 mph - N/A   Clear
4:55 AM 52.5 °F 49.1 °F 88% 30.07 in 10.0 mi North 5.8 mph - N/A   Clear
5:56 AM 51.4 °F 48.9 °F 91% 30.09 in 10.0 mi NNE 6.9 mph - N/A   Partly Cloudy
6:55 AM 52.5 °F 48.6 °F 86% 30.09 in 10.0 mi NNE 8.1 mph - N/A   Partly Cloudy
7:55 AM 56.3 °F 47.1 °F 71% 30.10 in 10.0 mi NNE 6.9 mph - N/A   Partly Cloudy
8:55 AM 60.8 °F 45.5 °F 57% 30.09 in 10.0 mi NE 5.8 mph - N/A   Partly Cloudy
9:55 AM 65.7 °F 40.8 °F 40% 30.09 in 10.0 mi NNE 3.5 mph - N/A   Partly Cloudy
10:55 AM 68.0 °F 38.1 °F 33% 30.07 in 10.0 mi East 4.6 mph - N/A   Partly Cloudy
11:25 AM 69.8 °F 37.4 °F 31% 30.03 in 10.0 mi NE 5.8 mph - N/A   Partly Cloudy
11:55 AM 70.7 °F 44.2 °F 39% 30.03 in 10.0 mi ESE 6.9 mph - N/A   Partly Cloudy
12:55 PM 70.3 °F 42.4 °F 36% 30.00 in 10.0 mi South 5.8 mph - N/A   Partly Cloudy
1:55 PM 71.6 °F 40.8 °F 33% 29.98 in 10.0 mi South 8.1 mph - N/A   Partly Cloudy
2:55 PM 70.0 °F 43.0 °F 38% 29.99 in 10.0 mi South 6.9 mph - N/A   Partly Cloudy
3:55 PM 69.4 °F 42.8 °F 38% 29.99 in 10.0 mi SSW 5.8 mph - N/A   Scattered Clouds
4:55 PM 66.9 °F 45.9 °F 47% 29.98 in 10.0 mi West 4.6 mph - N/A   Mostly Cloudy
5:55 PM 65.8 °F 43.0 °F 43% 30.00 in 10.0 mi WNW 6.9 mph - N/A   Mostly Cloudy
6:43 PM 64.4 °F 44.6 °F 49% 29.97 in 10.0 mi South 2.3 mph - N/A   Light Drizzle
6:55 PM 63.7 °F 46.0 °F 53% 29.98 in 10.0 mi NNE 5.8 mph - 0.00 in   Light Drizzle
7:21 PM 64.4 °F 44.6 °F 49% 29.96 in 10.0 mi East 4.6 mph - N/A   Mostly Cloudy
7:55 PM 63.5 °F 45.9 °F 53% 29.98 in 10.0 mi NNE 4.6 mph - 0.00 in   Mostly Cloudy
8:55 PM 62.6 °F 45.3 °F 53% 29.98 in 10.0 mi SSE 3.5 mph - N/A   Mostly Cloudy
9:03 PM 62.6 °F 46.4 °F 55% 29.96 in 10.0 mi West 2.3 mph - N/A Rain Light Rain
9:24 PM 60.8 °F 51.8 °F 72% 29.95 in 10.0 mi West 1.2 mph - N/A   Mostly Cloudy
9:55 PM 64.6 °F 49.1 °F 57% 29.94 in 10.0 mi South 5.8 mph - 0.00 in   Mostly Cloudy
10:55 PM 64.4 °F 43.9 °F 47% 29.92 in 10.0 mi South 8.1 mph - N/A   Mostly Cloudy
11:55 PM 60.8 °F 48.9 °F 65% 29.92 in 10.0 mi NNE 11.5 mph 20.7 mph N/A   Overcast